CFMSP CEN4-KGTF

Flight info

Callsign CFMSP
Flight time 1h 17m
Altitude 13000
Route YQL V21 GTF
Aircraft PA34/L-S/C

Departure

Time 2026-05-04 19:48
Airport High River Airport (CEN4)

Arrival

Time 2026-05-04 21:06
Airport Great Falls International Airport (KGTF)
Time Latitude Longitude Altitude Speed Heading
2026-05-04 19:40 50.53186 -113.84650 3424 ft 0 kts 345°
2026-05-04 19:43 50.53188 -113.84651 3424 ft 1 kts 337°
2026-05-04 19:43 50.53204 -113.84669 3424 ft 4 kts 328°
2026-05-04 19:43 50.53240 -113.84689 3422 ft 6 kts 347°
2026-05-04 19:44 50.53293 -113.84702 3421 ft 8 kts 352°
2026-05-04 19:44 50.53314 -113.84769 3421 ft 8 kts 255°
2026-05-04 19:44 50.53300 -113.84862 3422 ft 9 kts 256°
2026-05-04 19:44 50.53286 -113.84972 3422 ft 10 kts 260°
2026-05-04 19:45 50.53293 -113.85020 3422 ft 0 kts 360°
2026-05-04 19:47 50.53319 -113.85024 3422 ft 7 kts 355°
2026-05-04 19:47 50.53347 -113.84965 3421 ft 9 kts 77°
2026-05-04 19:47 50.53350 -113.84941 3421 ft 11 kts 79°
2026-05-04 19:47 50.53409 -113.84405 3419 ft 81 kts 78°
2026-05-04 19:48 50.53482 -113.83404 3605 ft 98 kts 80°
2026-05-04 19:48 50.53482 -113.82357 3965 ft 98 kts 78°
2026-05-04 19:48 50.53505 -113.81261 4267 ft 102 kts 76°
2026-05-04 19:48 50.53509 -113.80145 4650 ft 100 kts 87°
2026-05-04 19:49 50.53246 -113.79135 4993 ft 107 kts 117°
2026-05-04 19:49 50.52638 -113.78302 5205 ft 125 kts 144°
2026-05-04 19:49 50.51905 -113.77621 5559 ft 120 kts 144°
2026-05-04 19:49 50.51179 -113.76989 5870 ft 122 kts 145°
2026-05-04 19:50 50.50399 -113.76360 6136 ft 129 kts 153°
2026-05-04 19:50 50.49579 -113.75793 6419 ft 131 kts 149°
2026-05-04 19:50 50.48760 -113.75153 6723 ft 131 kts 146°
2026-05-04 19:50 50.47966 -113.74464 7020 ft 131 kts 144°
2026-05-04 19:51 50.47185 -113.73727 7332 ft 131 kts 141°
2026-05-04 19:51 50.46422 -113.72960 7629 ft 131 kts 140°
2026-05-04 19:51 50.45658 -113.72149 7888 ft 135 kts 139°
2026-05-04 19:51 50.44886 -113.71298 8152 ft 138 kts 138°
2026-05-04 19:52 50.44103 -113.70403 8437 ft 139 kts 136°
2026-05-04 19:52 50.43333 -113.69499 8720 ft 140 kts 137°
2026-05-04 19:52 50.42551 -113.68559 9020 ft 141 kts 137°
2026-05-04 19:52 50.41783 -113.67616 9312 ft 142 kts 136°
2026-05-04 19:53 50.41006 -113.66650 9612 ft 142 kts 134°
2026-05-04 19:53 50.40236 -113.65682 9897 ft 142 kts 135°
2026-05-04 19:53 50.39470 -113.64710 10173 ft 144 kts 135°
2026-05-04 19:53 50.38689 -113.63711 10450 ft 145 kts 136°
2026-05-04 19:54 50.37908 -113.62706 10729 ft 147 kts 135°
2026-05-04 19:54 50.37113 -113.61678 11012 ft 148 kts 135°
2026-05-04 19:54 50.36315 -113.60642 11288 ft 150 kts 136°
2026-05-04 19:54 50.35501 -113.59583 11514 ft 156 kts 137°
2026-05-04 19:55 50.34650 -113.58474 11744 ft 160 kts 137°
2026-05-04 19:55 50.33798 -113.57361 11987 ft 163 kts 137°
2026-05-04 19:55 50.32924 -113.56217 12237 ft 165 kts 138°
2026-05-04 19:55 50.32040 -113.55061 12493 ft 166 kts 139°
2026-05-04 19:56 50.31150 -113.53896 12745 ft 168 kts 139°
2026-05-04 19:56 50.30243 -113.52709 12991 ft 170 kts 139°
2026-05-04 19:56 50.29321 -113.51502 13178 ft 176 kts 140°
2026-05-04 19:56 50.28376 -113.50266 13370 ft 179 kts 140°
2026-05-04 19:57 50.27418 -113.49012 13580 ft 182 kts 140°
2026-05-04 19:57 50.26445 -113.47740 13787 ft 184 kts 140°
2026-05-04 19:57 50.25458 -113.46451 14006 ft 185 kts 141°
2026-05-04 19:57 50.24461 -113.45149 14236 ft 186 kts 139°
2026-05-04 19:58 50.23474 -113.43858 14461 ft 187 kts 140°
2026-05-04 19:58 50.22482 -113.42564 14688 ft 188 kts 141°
2026-05-04 19:58 50.21467 -113.41242 14902 ft 190 kts 139°
2026-05-04 19:58 50.20428 -113.39887 14991 ft 200 kts 139°
2026-05-04 19:59 50.19328 -113.38455 14977 ft 209 kts 139°
2026-05-04 19:59 50.18234 -113.37035 14978 ft 204 kts 139°
2026-05-04 19:59 50.17149 -113.35639 14976 ft 201 kts 139°
2026-05-04 19:59 50.16064 -113.34244 14975 ft 204 kts 140°
2026-05-04 20:00 50.14968 -113.32822 14975 ft 206 kts 140°
2026-05-04 20:00 50.13878 -113.31399 14978 ft 207 kts 141°
2026-05-04 20:00 50.12761 -113.29950 14976 ft 210 kts 140°
2026-05-04 20:00 50.11638 -113.28494 14973 ft 211 kts 141°
2026-05-04 20:01 50.10520 -113.27037 14971 ft 211 kts 140°
2026-05-04 20:01 50.09379 -113.25557 14971 ft 212 kts 141°
2026-05-04 20:01 50.08253 -113.24099 14972 ft 212 kts 141°
2026-05-04 20:01 50.07122 -113.22633 14978 ft 211 kts 141°
2026-05-04 20:02 50.05995 -113.21172 14979 ft 212 kts 140°
2026-05-04 20:02 50.04857 -113.19701 14977 ft 213 kts 141°
2026-05-04 20:02 50.03717 -113.18220 14974 ft 214 kts 141°
2026-05-04 20:02 50.02583 -113.16755 14975 ft 214 kts 141°
2026-05-04 20:03 50.01428 -113.15265 14971 ft 215 kts 140°
2026-05-04 20:03 50.00290 -113.13792 14969 ft 215 kts 141°
2026-05-04 20:03 49.99130 -113.12296 14972 ft 215 kts 141°
2026-05-04 20:03 49.97992 -113.10830 14976 ft 214 kts 141°
2026-05-04 20:04 49.96843 -113.09346 14973 ft 215 kts 140°
2026-05-04 20:04 49.95701 -113.07876 14970 ft 215 kts 140°
2026-05-04 20:04 49.94548 -113.06391 14964 ft 215 kts 141°
2026-05-04 20:04 49.93408 -113.04926 14969 ft 214 kts 141°
2026-05-04 20:05 49.92267 -113.03454 14979 ft 213 kts 141°
2026-05-04 20:05 49.91127 -113.01989 14981 ft 213 kts 141°
2026-05-04 20:05 49.89988 -113.00529 14978 ft 214 kts 141°
2026-05-04 20:05 49.88827 -112.99059 14970 ft 214 kts 141°
2026-05-04 20:06 49.87676 -112.97600 14971 ft 213 kts 141°
2026-05-04 20:06 49.86541 -112.96159 14974 ft 212 kts 141°
2026-05-04 20:06 49.85400 -112.94706 14974 ft 212 kts 141°
2026-05-04 20:06 49.84263 -112.93257 14972 ft 212 kts 141°
2026-05-04 20:07 49.83136 -112.91819 14984 ft 211 kts 140°
2026-05-04 20:07 49.82012 -112.90388 14985 ft 211 kts 141°
2026-05-04 20:07 49.80870 -112.88928 14981 ft 212 kts 141°
2026-05-04 20:07 49.79733 -112.87480 14983 ft 212 kts 140°
2026-05-04 20:08 49.78599 -112.86032 14982 ft 212 kts 140°
2026-05-04 20:08 49.77455 -112.84577 14984 ft 212 kts 141°
2026-05-04 20:08 49.76310 -112.83120 14986 ft 212 kts 141°
2026-05-04 20:08 49.75170 -112.81677 14984 ft 212 kts 142°
2026-05-04 20:09 49.74023 -112.80248 14986 ft 212 kts 142°
2026-05-04 20:09 49.72884 -112.78841 14988 ft 211 kts 142°
2026-05-04 20:09 49.71734 -112.77412 14993 ft 211 kts 141°
2026-05-04 20:09 49.70579 -112.75996 14991 ft 211 kts 142°
2026-05-04 20:10 49.69443 -112.74592 14991 ft 212 kts 140°
2026-05-04 20:10 49.68321 -112.73129 14993 ft 212 kts 140°
2026-05-04 20:10 49.67198 -112.71664 14990 ft 212 kts 140°
2026-05-04 20:10 49.66067 -112.70184 14991 ft 212 kts 140°
2026-05-04 20:11 49.64938 -112.68735 14995 ft 211 kts 146°
2026-05-04 20:11 49.63697 -112.67529 14994 ft 210 kts 152°
2026-05-04 20:11 49.62439 -112.66404 14996 ft 211 kts 152°
2026-05-04 20:11 49.61115 -112.65498 14997 ft 206 kts 170°
2026-05-04 20:12 49.59731 -112.65011 14993 ft 203 kts 179°
2026-05-04 20:12 49.58334 -112.64661 14989 ft 203 kts 179°
2026-05-04 20:12 49.56937 -112.64290 14992 ft 203 kts 178°
2026-05-04 20:12 49.55553 -112.63899 14990 ft 204 kts 177°
2026-05-04 20:13 49.54162 -112.63485 14993 ft 204 kts 176°
2026-05-04 20:13 49.52776 -112.63058 14993 ft 204 kts 176°
2026-05-04 20:13 49.51388 -112.62623 14992 ft 204 kts 175°
2026-05-04 20:13 49.49990 -112.62174 14992 ft 205 kts 176°
2026-05-04 20:14 49.48604 -112.61723 14986 ft 205 kts 175°
2026-05-04 20:14 49.47208 -112.61270 14985 ft 204 kts 176°
2026-05-04 20:14 49.45815 -112.60820 14990 ft 204 kts 176°
2026-05-04 20:14 49.44423 -112.60370 14980 ft 204 kts 175°
2026-05-04 20:15 49.43038 -112.59919 14981 ft 203 kts 175°
2026-05-04 20:15 49.41669 -112.59471 14981 ft 203 kts 175°
2026-05-04 20:15 49.40282 -112.59014 14981 ft 203 kts 175°
2026-05-04 20:15 49.38905 -112.58547 14981 ft 203 kts 174°
2026-05-04 20:16 49.37531 -112.58083 14977 ft 203 kts 175°
2026-05-04 20:16 49.36142 -112.57616 14978 ft 203 kts 174°
2026-05-04 20:16 49.34764 -112.57153 14976 ft 203 kts 175°
2026-05-04 20:16 49.33383 -112.56690 14964 ft 203 kts 174°
2026-05-04 20:17 49.32011 -112.56232 14973 ft 202 kts 175°
2026-05-04 20:17 49.30623 -112.55769 14976 ft 203 kts 175°
2026-05-04 20:17 49.29254 -112.55317 14970 ft 203 kts 175°
2026-05-04 20:17 49.27867 -112.54861 14972 ft 204 kts 175°
2026-05-04 20:18 49.26472 -112.54378 14966 ft 206 kts 169°
2026-05-04 20:18 49.25153 -112.53484 14966 ft 209 kts 159°
2026-05-04 20:18 49.23837 -112.52535 14960 ft 209 kts 159°
2026-05-04 20:18 49.22517 -112.51585 14964 ft 208 kts 159°
2026-05-04 20:19 49.21203 -112.50741 14962 ft 203 kts 172°
2026-05-04 20:19 49.19836 -112.50285 14967 ft 200 kts 178°
2026-05-04 20:19 49.18465 -112.49926 14973 ft 200 kts 178°
2026-05-04 20:19 49.17086 -112.49574 14974 ft 200 kts 178°
2026-05-04 20:20 49.15711 -112.49231 14970 ft 202 kts 179°
2026-05-04 20:20 49.14322 -112.48890 14968 ft 201 kts 179°
2026-05-04 20:20 49.12946 -112.48550 14964 ft 202 kts 177°
2026-05-04 20:20 49.11557 -112.48187 14962 ft 201 kts 177°
2026-05-04 20:21 49.10186 -112.47834 14963 ft 201 kts 178°
2026-05-04 20:21 49.08805 -112.47482 14960 ft 201 kts 178°
2026-05-04 20:21 49.06051 -112.46781 14964 ft 200 kts 178°
2026-05-04 20:22 49.04670 -112.46433 14962 ft 201 kts 178°
2026-05-04 20:22 49.03294 -112.46091 14966 ft 201 kts 178°
2026-05-04 20:22 49.01904 -112.45747 14962 ft 202 kts 178°
2026-05-04 20:22 49.00526 -112.45390 14960 ft 202 kts 178°
2026-05-04 20:23 48.99136 -112.45031 14945 ft 202 kts 178°
2026-05-04 20:23 48.97740 -112.44675 14946 ft 202 kts 179°
2026-05-04 20:23 48.96362 -112.44326 14947 ft 202 kts 178°
2026-05-04 20:23 48.94991 -112.43982 14946 ft 201 kts 178°
2026-05-04 20:24 48.93608 -112.43636 14945 ft 201 kts 178°
2026-05-04 20:24 48.92228 -112.43294 14944 ft 201 kts 178°
2026-05-04 20:24 48.90853 -112.42954 14945 ft 201 kts 178°
2026-05-04 20:24 48.89462 -112.42595 14944 ft 201 kts 178°
2026-05-04 20:25 48.88100 -112.42249 14939 ft 200 kts 178°
2026-05-04 20:25 48.86719 -112.41901 14937 ft 199 kts 178°
2026-05-04 20:25 48.85346 -112.41557 14940 ft 199 kts 177°
2026-05-04 20:25 48.83987 -112.41215 14944 ft 198 kts 178°
2026-05-04 20:26 48.82626 -112.40877 14944 ft 198 kts 178°
2026-05-04 20:26 48.81269 -112.40541 14948 ft 198 kts 178°
2026-05-04 20:26 48.79919 -112.40209 14944 ft 198 kts 178°
2026-05-04 20:26 48.78565 -112.39876 14947 ft 198 kts 178°
2026-05-04 20:27 48.77206 -112.39526 14947 ft 198 kts 177°
2026-05-04 20:27 48.75834 -112.39176 14948 ft 198 kts 177°
2026-05-04 20:27 48.74483 -112.38834 14950 ft 197 kts 178°
2026-05-04 20:27 48.73134 -112.38494 14953 ft 196 kts 178°
2026-05-04 20:28 48.71789 -112.38157 14962 ft 195 kts 177°
2026-05-04 20:28 48.70461 -112.37825 14968 ft 196 kts 179°
2026-05-04 20:28 48.69106 -112.37492 14966 ft 197 kts 178°
2026-05-04 20:28 48.67748 -112.37160 14959 ft 198 kts 178°
2026-05-04 20:29 48.66396 -112.36793 14961 ft 198 kts 177°
2026-05-04 20:29 48.65057 -112.36415 14966 ft 198 kts 177°
2026-05-04 20:29 48.63691 -112.36027 14973 ft 197 kts 176°
2026-05-04 20:29 48.62343 -112.35653 14979 ft 198 kts 177°
2026-05-04 20:30 48.60996 -112.35267 14980 ft 198 kts 176°
2026-05-04 20:30 48.59635 -112.34900 14978 ft 198 kts 178°
2026-05-04 20:30 48.58292 -112.34536 14974 ft 198 kts 178°
2026-05-04 20:30 48.56941 -112.34109 14965 ft 201 kts 164°
2026-05-04 20:31 48.55741 -112.32999 14974 ft 204 kts 147°
2026-05-04 20:31 48.54573 -112.31770 14971 ft 205 kts 151°
2026-05-04 20:31 48.53340 -112.30751 14968 ft 204 kts 157°
2026-05-04 20:31 48.52071 -112.29830 14960 ft 203 kts 159°
2026-05-04 20:32 48.50793 -112.28885 14959 ft 203 kts 158°
2026-05-04 20:32 48.49537 -112.27917 14959 ft 203 kts 156°
2026-05-04 20:32 48.48288 -112.26921 14958 ft 202 kts 156°
2026-05-04 20:32 48.47057 -112.25917 14956 ft 203 kts 155°
2026-05-04 20:33 48.45819 -112.24889 14955 ft 203 kts 155°
2026-05-04 20:33 48.44593 -112.23858 14952 ft 203 kts 155°
2026-05-04 20:33 48.43362 -112.22813 14950 ft 203 kts 155°
2026-05-04 20:33 48.42126 -112.21757 14943 ft 204 kts 155°
2026-05-04 20:34 48.40909 -112.20714 14966 ft 202 kts 154°
2026-05-04 20:34 48.39682 -112.19658 14985 ft 202 kts 154°
2026-05-04 20:34 48.38472 -112.18612 14984 ft 203 kts 154°
2026-05-04 20:34 48.37238 -112.17544 14983 ft 204 kts 154°
2026-05-04 20:35 48.36010 -112.16479 14976 ft 204 kts 154°
2026-05-04 20:35 48.34775 -112.15408 14976 ft 205 kts 154°
2026-05-04 20:35 48.33541 -112.14343 14974 ft 205 kts 154°
2026-05-04 20:35 48.32309 -112.13278 14974 ft 204 kts 154°
2026-05-04 20:36 48.31094 -112.12178 14972 ft 205 kts 144°
2026-05-04 20:36 48.30000 -112.10796 14975 ft 205 kts 141°
2026-05-04 20:36 48.28912 -112.09426 14980 ft 205 kts 142°
2026-05-04 20:36 48.27817 -112.08053 14976 ft 205 kts 142°
2026-05-04 20:37 48.26673 -112.06801 14979 ft 203 kts 152°
2026-05-04 20:37 48.25449 -112.05771 14980 ft 203 kts 155°
2026-05-04 20:37 48.24199 -112.04756 14982 ft 203 kts 156°
2026-05-04 20:37 48.22967 -112.03754 14981 ft 203 kts 155°
2026-05-04 20:38 48.21724 -112.02738 14981 ft 203 kts 156°
2026-05-04 20:38 48.20488 -112.01728 14977 ft 203 kts 155°
2026-05-04 20:38 48.19243 -112.00711 14971 ft 203 kts 156°
2026-05-04 20:38 48.18002 -111.99699 14977 ft 202 kts 155°
2026-05-04 20:39 48.16766 -111.98698 14978 ft 202 kts 156°
2026-05-04 20:39 48.15539 -111.97701 14976 ft 202 kts 156°
2026-05-04 20:39 48.14295 -111.96685 14980 ft 202 kts 156°
2026-05-04 20:39 48.13073 -111.95689 14983 ft 201 kts 155°
2026-05-04 20:40 48.11831 -111.94685 14981 ft 202 kts 156°
2026-05-04 20:40 48.10605 -111.93688 14977 ft 202 kts 156°
2026-05-04 20:40 48.09365 -111.92679 14976 ft 203 kts 156°
2026-05-04 20:40 48.08134 -111.91680 14974 ft 202 kts 156°
2026-05-04 20:41 48.06880 -111.90668 14976 ft 202 kts 155°
2026-05-04 20:41 48.05660 -111.89677 14972 ft 202 kts 155°
2026-05-04 20:41 48.04416 -111.88667 14978 ft 201 kts 155°
2026-05-04 20:41 48.03181 -111.87669 14981 ft 201 kts 156°
2026-05-04 20:42 48.01953 -111.86678 14976 ft 202 kts 156°
2026-05-04 20:42 48.00731 -111.85685 14977 ft 202 kts 156°
2026-05-04 20:42 47.99499 -111.84692 14976 ft 201 kts 156°
2026-05-04 20:42 47.98258 -111.83694 14978 ft 202 kts 156°
2026-05-04 20:43 47.97020 -111.82691 14976 ft 202 kts 156°
2026-05-04 20:43 47.95777 -111.81690 14973 ft 202 kts 156°
2026-05-04 20:43 47.94514 -111.80675 14798 ft 212 kts 155°
2026-05-04 20:43 47.93205 -111.79617 14572 ft 220 kts 155°
2026-05-04 20:44 47.91845 -111.78519 14344 ft 223 kts 156°
2026-05-04 20:44 47.90487 -111.77431 14127 ft 223 kts 156°
2026-05-04 20:44 47.89118 -111.76334 13897 ft 223 kts 156°
2026-05-04 20:44 47.87752 -111.75251 13669 ft 222 kts 156°
2026-05-04 20:45 47.86389 -111.74171 13439 ft 220 kts 156°
2026-05-04 20:45 47.85044 -111.73103 13201 ft 219 kts 155°
2026-05-04 20:45 47.83727 -111.72037 12956 ft 218 kts 155°
2026-05-04 20:45 47.82390 -111.70963 12686 ft 217 kts 154°
2026-05-04 20:46 47.81063 -111.69900 12415 ft 215 kts 153°
2026-05-04 20:46 47.79754 -111.68857 12145 ft 213 kts 152°
2026-05-04 20:46 47.78459 -111.67824 11861 ft 209 kts 152°
2026-05-04 20:46 47.77208 -111.66813 11576 ft 205 kts 153°
2026-05-04 20:47 47.75960 -111.65820 11306 ft 201 kts 153°
2026-05-04 20:47 47.74739 -111.64838 11052 ft 197 kts 152°
2026-05-04 20:47 47.73541 -111.63885 10784 ft 194 kts 150°
2026-05-04 20:47 47.72357 -111.62941 10530 ft 191 kts 150°
2026-05-04 20:48 47.71184 -111.61998 10290 ft 191 kts 150°
2026-05-04 20:48 47.70018 -111.61070 10051 ft 191 kts 149°
2026-05-04 20:48 47.68864 -111.60153 9817 ft 190 kts 149°
2026-05-04 20:48 47.67699 -111.59219 9580 ft 189 kts 149°
2026-05-04 20:49 47.66540 -111.58295 9346 ft 188 kts 149°
2026-05-04 20:49 47.65396 -111.57390 9111 ft 187 kts 149°
2026-05-04 20:49 47.64246 -111.56468 8877 ft 187 kts 149°
2026-05-04 20:49 47.63108 -111.55560 8652 ft 186 kts 149°
2026-05-04 20:50 47.61983 -111.54662 8430 ft 184 kts 149°
2026-05-04 20:50 47.60852 -111.53758 8206 ft 183 kts 149°
2026-05-04 20:50 47.59734 -111.52868 7979 ft 182 kts 149°
2026-05-04 20:50 47.58634 -111.51994 7755 ft 181 kts 149°
2026-05-04 20:51 47.57526 -111.51113 7526 ft 180 kts 149°
2026-05-04 20:51 47.56426 -111.50237 7301 ft 179 kts 149°
2026-05-04 20:51 47.55336 -111.49371 7078 ft 179 kts 149°
2026-05-04 20:51 47.54243 -111.48499 6855 ft 178 kts 149°
2026-05-04 20:52 47.53149 -111.47629 6630 ft 178 kts 149°
2026-05-04 20:52 47.52069 -111.46764 6406 ft 176 kts 147°
2026-05-04 20:52 47.51313 -111.45426 6154 ft 170 kts 105°
2026-05-04 20:52 47.51347 -111.43777 5916 ft 160 kts 60°
2026-05-04 20:53 47.52104 -111.42679 5723 ft 149 kts 25°
2026-05-04 20:53 47.52999 -111.42036 5723 ft 141 kts 21°
2026-05-04 20:53 47.53879 -111.41425 5718 ft 134 kts 20°
2026-05-04 20:53 47.54704 -111.40851 5718 ft 129 kts 21°
2026-05-04 20:54 47.55514 -111.40287 5720 ft 127 kts 21°
2026-05-04 20:54 47.56309 -111.39735 5721 ft 127 kts 21°
2026-05-04 20:54 47.57119 -111.39168 5717 ft 128 kts 21°
2026-05-04 20:54 47.57914 -111.38614 5715 ft 128 kts 21°
2026-05-04 20:55 47.58731 -111.38042 5716 ft 129 kts 21°
2026-05-04 20:55 47.59540 -111.37479 5718 ft 130 kts 21°
2026-05-04 20:55 47.60365 -111.36903 5717 ft 131 kts 21°
2026-05-04 20:55 47.61192 -111.36323 5713 ft 131 kts 21°
2026-05-04 20:56 47.62014 -111.35735 5715 ft 132 kts 21°
2026-05-04 20:56 47.62843 -111.35143 5713 ft 132 kts 21°
2026-05-04 20:56 47.63674 -111.34549 5711 ft 132 kts 22°
2026-05-04 20:56 47.64503 -111.33959 5709 ft 132 kts 22°
2026-05-04 20:57 47.65339 -111.33369 5716 ft 132 kts 22°
2026-05-04 20:57 47.66167 -111.32793 5713 ft 132 kts 22°
2026-05-04 20:57 47.66995 -111.32220 5708 ft 132 kts 22°
2026-05-04 20:57 47.67835 -111.31635 5705 ft 132 kts 22°
2026-05-04 20:58 47.68467 -111.30642 5671 ft 141 kts 64°
2026-05-04 20:58 47.68430 -111.29199 5679 ft 144 kts 109°
2026-05-04 20:58 47.67821 -111.28023 5630 ft 145 kts 130°
2026-05-04 20:58 47.67136 -111.26951 5565 ft 145 kts 131°
2026-05-04 20:59 47.66436 -111.25851 5472 ft 146 kts 131°
2026-05-04 20:59 47.65734 -111.24747 5380 ft 147 kts 131°
2026-05-04 20:59 47.65039 -111.23646 5298 ft 147 kts 131°
2026-05-04 20:59 47.64350 -111.22546 5215 ft 146 kts 131°
2026-05-04 21:00 47.63657 -111.21437 5128 ft 146 kts 133°
2026-05-04 21:00 47.62766 -111.20850 5108 ft 140 kts 179°
2026-05-04 21:00 47.61816 -111.20980 5113 ft 135 kts 191°
2026-05-04 21:00 47.60898 -111.21173 5113 ft 133 kts 191°
2026-05-04 21:01 47.59975 -111.21371 5113 ft 132 kts 191°
2026-05-04 21:01 47.59103 -111.21732 5114 ft 128 kts 218°
2026-05-04 21:01 47.58463 -111.22590 5124 ft 125 kts 230°
2026-05-04 21:01 47.57839 -111.23529 5093 ft 128 kts 230°
2026-05-04 21:02 47.57214 -111.24474 5055 ft 130 kts 230°
2026-05-04 21:02 47.56580 -111.25436 5027 ft 129 kts 230°
2026-05-04 21:02 47.55954 -111.26385 5029 ft 127 kts 231°
2026-05-04 21:02 47.55329 -111.27319 5029 ft 126 kts 229°
2026-05-04 21:03 47.54667 -111.28159 5037 ft 126 kts 223°
2026-05-04 21:03 47.53968 -111.28957 5033 ft 126 kts 221°
2026-05-04 21:03 47.53269 -111.29720 4969 ft 122 kts 220°
2026-05-04 21:03 47.52583 -111.30430 4892 ft 117 kts 218°
2026-05-04 21:04 47.51954 -111.31172 4763 ft 116 kts 228°
2026-05-04 21:04 47.51375 -111.31995 4591 ft 115 kts 227°
2026-05-04 21:04 47.50815 -111.32795 4373 ft 112 kts 227°
2026-05-04 21:04 47.50245 -111.33585 4163 ft 112 kts 225°
2026-05-04 21:05 47.49669 -111.34333 3965 ft 107 kts 227°
2026-05-04 21:05 47.49149 -111.35094 3766 ft 102 kts 229°
2026-05-04 21:05 47.48689 -111.35786 3662 ft 85 kts 224°
2026-05-04 21:05 47.48350 -111.36299 3666 ft 57 kts 225°
2026-05-04 21:06 47.48164 -111.36591 3666 ft 22 kts 227°
2026-05-04 21:06 47.48062 -111.36698 3665 ft 15 kts 208°
2026-05-04 21:06 47.47987 -111.36664 3666 ft 10 kts 134°
2026-05-04 21:06 47.47979 -111.36597 3667 ft 4 kts 61°
2026-05-04 21:07 47.47993 -111.36562 3668 ft 7 kts 57°
2026-05-04 21:07 47.48057 -111.36454 3668 ft 21 kts 45°
2026-05-04 21:07 47.48178 -111.36276 3666 ft 25 kts 46°
2026-05-04 21:07 47.48302 -111.36092 3666 ft 24 kts 45°
2026-05-04 21:08 47.48421 -111.35917 3663 ft 24 kts 45°
2026-05-04 21:08 47.48539 -111.35745 3660 ft 23 kts 45°
2026-05-04 21:08 47.48653 -111.35600 3658 ft 19 kts 43°
2026-05-04 21:08 47.48741 -111.35467 3653 ft 18 kts 47°
2026-05-04 21:09 47.48846 -111.35319 3645 ft 22 kts 42°
2026-05-04 21:09 47.48847 -111.35160 3633 ft 14 kts 150°
2026-05-04 21:09 47.48834 -111.35156 3632 ft 0 kts 196°